Muncie, IN

7:32 AM EDT on March 29, 2017 (GMT -0400)
Delaware County-Johnson

Weather History for KMIE - March, 2013

Change the Weather History Date:

Thursday, March 21, 2013

  Actual Average Record
Temperature  
Mean Temperature 25 °F 42 °F  
Max Temperature 33 °F 51 °F 84 °F (2012)
Min Temperature 17 °F 32 °F 15 °F (1965)
Degree Days  
Heating Degree Days 40 23  
Month to date heating degree days 633 573  
Since 1 July heating degree days 4647 4956  
Cooling Degree Days 0 0  
Month to date cooling degree days 0 0  
Year to date cooling degree days 0 0  
Moisture  
Dew Point 13 °F    
Average Humidity 59    
Maximum Humidity 74    
Minimum Humidity 43    
Precipitation  
Precipitation T in 0.10 in 0.76 in (1983)
Month to date precipitation 0.96 1.89  
Year to date precipitation 6.63 6.43  
Sea Level Pressure  
Sea Level Pressure 30.00 in    
Wind  
Wind Speed 10 mph (WNW)    
Max Wind Speed 17 mph    
Max Gust Speed 22 mph    
Visibility 9 miles    
Events Snow    
T = Trace of Precipitation, MM = Missing Value Source: NWS Daily Summary

Daily Weather History Graph

Daily Weather History Graph

Search for Another Location

Airport or City:

Trip Planner

Search our weather history database for the weather conditions in past years. The results will help you decide how hot, cold, wet, or windy it might be!

Date:

Astronomy

Mar. 21, 2013 Rise Set
Actual Time 7:42 AM EDT 7:54 PM EDT
Civil Twilight 7:15 AM EDT 8:22 PM EDT
Nautical Twilight 6:44 AM EDT 8:53 PM EDT
Astronomical Twilight 6:11 AM EDT 9:26 PM EDT
Moon 2:23 PM EDT (3/21) 4:04 AM EDT (3/21)
Length of Visible Light 13h 06m
Length of Day
12h 12m
Waxing Gibbous, 68% of the Moon is Illuminated
Mar 21
Waxing Gibbous
Mar 27
Full
Apr 3
Last Quarter
Apr 10
New
Apr 18
First Quarter

Hourly Weather History & Observations

Time (EDT) Temp. Windchill Dew Point Humidity Pressure Visibility Wind Dir Wind Speed Gust Speed Precip Events Conditions
12:53 AM 21.9 °F 10.4 °F 14.0 °F 72% 30.00 in 6.0 mi NW 11.5 mph - 0.00 in Snow Light Snow
2:53 AM 21.9 °F 13.4 °F 12.9 °F 68% 29.99 in 10.0 mi WNW 6.9 mph - N/A   Overcast
3:53 AM 21.0 °F 11.4 °F 10.9 °F 65% 29.98 in 10.0 mi WNW 8.1 mph - N/A   Overcast
4:53 AM 19.9 °F 7.3 °F 12.9 °F 74% 29.97 in 7.0 mi NW 12.7 mph - 0.00 in   Overcast
5:36 AM 19.4 °F 7.9 °F 12.2 °F 74% 29.94 in 9.0 mi NW 10.4 mph - N/A   Overcast
5:53 AM 19.9 °F 6.7 °F 12.0 °F 71% 29.98 in 10.0 mi NNW 13.8 mph - N/A   Overcast
6:53 AM 19.0 °F 8.2 °F 10.9 °F 71% 29.99 in 10.0 mi NW 9.2 mph - N/A   Mostly Cloudy
7:53 AM 18.0 °F 7.7 °F 10.0 °F 71% 30.00 in 10.0 mi WNW 8.1 mph - N/A   Clear
8:53 AM 19.0 °F 6.8 °F 10.0 °F 68% 30.00 in 10.0 mi WNW 11.5 mph - N/A   Clear
9:53 AM 21.9 °F 9.8 °F 10.9 °F 63% 30.01 in 10.0 mi WNW 12.7 mph - N/A   Scattered Clouds
10:53 AM 25.0 °F 13.6 °F 12.0 °F 58% 30.01 in 10.0 mi West 12.7 mph - N/A   Partly Cloudy
11:53 AM 25.0 °F 13.6 °F 12.9 °F 60% 30.03 in 10.0 mi WNW 12.7 mph - N/A   Overcast
12:13 PM 24.8 °F 13.4 °F 12.2 °F 59% 30.01 in 9.0 mi West 12.7 mph - 0.00 in Snow Light Snow
12:39 PM 26.6 °F 14.3 °F 15.8 °F 64% 30.01 in 4.0 mi WNW 16.1 mph - 0.00 in Snow Light Snow
12:53 PM 28.0 °F 17.0 °F 15.1 °F 58% 30.03 in 9.0 mi WNW 13.8 mph - 0.00 in   Overcast
1:53 PM 28.9 °F 19.2 °F 14.0 °F 54% 30.03 in 10.0 mi WNW 11.5 mph - N/A   Mostly Cloudy
2:53 PM 30.0 °F 21.7 °F 14.0 °F 51% 30.02 in 10.0 mi WNW 9.2 mph 18.4 mph N/A   Overcast
3:53 PM 32.0 °F 23.0 °F 15.1 °F 50% 30.00 in 10.0 mi WNW 11.5 mph 20.7 mph N/A   Overcast
4:53 PM 32.0 °F 23.0 °F 14.0 °F 48% 30.00 in 10.0 mi WNW 11.5 mph 18.4 mph N/A   Overcast
5:53 PM 32.0 °F 24.2 °F 14.0 °F 48% 30.00 in 10.0 mi WNW 9.2 mph 19.6 mph N/A   Overcast
6:53 PM 32.0 °F 23.6 °F 12.9 °F 45% 30.00 in 10.0 mi WNW 10.4 mph - N/A   Overcast
7:53 PM 30.9 °F 23.5 °F 14.0 °F 50% 30.00 in 10.0 mi WNW 8.1 mph - N/A   Scattered Clouds
8:53 PM 30.0 °F 25.2 °F 14.0 °F 51% 30.01 in 10.0 mi West 4.6 mph - N/A   Clear
9:53 PM 28.9 °F 23.9 °F 12.9 °F 51% 30.02 in 10.0 mi WSW 4.6 mph - N/A   Clear
10:53 PM 28.0 °F 22.8 °F 14.0 °F 56% 30.03 in 10.0 mi WSW 4.6 mph - N/A   Clear
11:53 PM 27.0 °F 20.5 °F 15.1 °F 61% 30.02 in 10.0 mi WSW 5.8 mph - N/A   Clear